Location: Cutler
(25.6150°N, 80.3110°W)
Time: 06:01:35
(UTC-05:00)

ISS - Visible Passes

Search period start: 19 January 2018 00:00
Search period end: 29 January 2018 00:00
Orbit: 402 x 407 km, 51.6° (Epoch: 19 January)

Date Brightness Start Highest point End Pass type
(mag) Time Alt. Az. Time Alt. Az. Time Alt. Az.
19 Jan -2.7 05:23:53 43° E 05:23:53 43° E 05:26:24 10° SE visible
20 Jan -2.0 06:07:01 17° WSW 06:07:09 17° SW 06:09:20 10° SSW visible
20 Jan -2.2 19:25:24 10° SSW 19:27:07 24° S 19:27:07 24° S visible
21 Jan -1.1 05:17:31 14° SSE 05:17:31 14° SSE 05:18:04 10° SSE visible
21 Jan -1.7 18:34:23 10° SSE 18:36:11 14° SE 18:37:37 11° E visible
21 Jan -0.6 20:09:36 10° WSW 20:10:19 14° W 20:10:19 14° W visible
22 Jan -3.6 19:16:52 10° SW 19:20:04 65° NW 19:20:44 49° N visible
23 Jan -3.4 18:24:41 10° SSW 18:27:49 45° SE 18:30:56 10° NE visible
23 Jan -0.6 20:03:40 10° NW 20:03:46 10° NW 20:03:46 10° NW visible
24 Jan -1.6 19:09:23 10° W 19:11:55 21° NW 19:14:02 12° N visible
